This is the latest recevied weather packets stored in our database for station/object KD6VPH. If no packets are shown the sender has not sent any weather packets the latest 10 day(s).
| Time | Temp. | Humidity | Pressure | Rain* | Wind** | Luminosity | Snow |
|---|---|---|---|---|---|---|---|
| 1777446931 | 6.11° C | 83% | 1022.7 hPa | 0 mm | - | 0 W/m² | - |
| 1777446331 | 6.11° C | 83% | 1022.7 hPa | 0 mm | - | 0 W/m² | - |
| 1777445731 | 6.11° C | 82% | 1022.6 hPa | 0 mm | - | 0 W/m² | - |
| 1777445132 | 6.67° C | 81% | 1022.7 hPa | 0 mm | - | 0 W/m² | - |
| 1777444532 | 6.67° C | 81% | 1022.7 hPa | 0 mm | - | 0 W/m² | - |
| 1777443931 | 7.22° C | 80% | 1022.7 hPa | 0 mm | - | 0 W/m² | - |
| 1777443332 | 7.22° C | 79% | 1022.7 hPa | 0 mm | - | 0 W/m² | - |
| 1777442732 | 7.78° C | 78% | 1022.6 hPa | 0 mm | - | 0 W/m² | - |
| 1777441532 | 8.33° C | 77% | 1022.6 hPa | 0 mm | - | 0 W/m² | - |
| 1777440932 | 8.89° C | 76% | 1022.5 hPa | 0 mm | - | 0 W/m² | - |
| 1777439132 | 9.44° C | 74% | 1022.6 hPa | 0 mm | - | 0 W/m² | - |
| 1777437932 | 10° C | 73% | 1022.6 hPa | 0 mm | - | 0 W/m² | - |
| 1777437332 | 10° C | 73% | 1022.5 hPa | 0 mm | - | 0 W/m² | - |
| 1777436732 | 10.56° C | 73% | 1022.5 hPa | 0 mm | - | 0 W/m² | - |
| 1777436271 | 10.56° C | 71% | 1022.5 hPa | 0 mm | - | 0 W/m² | - |
| 1777436132 | 10.56° C | 71% | 1022.5 hPa | 0 mm | - | 0 W/m² | - |
| 1777434932 | 10.56° C | 70% | 1022.2 hPa | 0 mm | - | 0 W/m² | - |
| 1777434332 | 11.11° C | 70% | 1022.1 hPa | 0 mm | - | 0 W/m² | - |
| 1777433732 | 11.11° C | 70% | 1022.1 hPa | 0 mm | - | 0 W/m² | - |
| 1777433132 | 11.11° C | 71% | 1022.1 hPa | 0 mm | - | 0 W/m² | - |
| 1777431932 | 11.67° C | 70% | 1021.9 hPa | 0 mm | - | 7 W/m² | - |
| 1777431332 | 11.67° C | 69% | 1021.8 hPa | 0 mm | - | 12 W/m² | - |
| 1777430732 | 11.67° C | 69% | 1021.8 hPa | 0 mm | - | 19 W/m² | - |
| 1777430132 | 12.22° C | 69% | 1021.8 hPa | 0 mm | - | 26 W/m² | - |
| 1777428932 | 12.22° C | 68% | 1021.7 hPa | 0 mm | - | 44 W/m² | - |
* Rain latest hour (hover to see other rain measurements)
** Current wind speed in m/s (hover to see current wind gust speed)